Wind_Speed
76 77 77 78 79 79 80 81 82 82 83 83 83 82 79 76 74 72 70 68 67 66 65 65 66 66 65 63 61 61 62 66 68 68 69 69 69 70 71 72 72 71
76 76 77 78 79 80 81 82 83 83 83 83 82 81 78 75 73 71 68 66 65 65 64 64 66 66 64 62 61 61 63 66 68 68 68 69 69 70 71 72 71 69
75 76 77 79 80 81 82 83 84 83 83 82 80 78 75 73 72 70 68 66 65 64 63 63 63 62 62 61 61 62 62 62 63 64 65 65 64 63 63 65 65 63
76 78 79 81 82 83 84 84 84 83 82 80 78 76 73 72 71 70 69 67 64 62 61 60 59 59 59 60 61 64 65 63 62 61 60 59 58 57 56 57 59 59
78 80 81 82 84 84 85 84 83 82 81 79 77 75 73 72 71 70 69 65 62 60 60 59 60 61 60 62 64 65 67 68 65 61 58 58 58 58 57 58 58 58
80 82 83 84 85 85 84 83 82 81 79 77 75 73 72 71 70 69 68 64 61 60 61 61 62 62 62 66 68 68 67 67 66 62 60 60 60 59 59 58 58 57
81 83 84 85 85 84 83 82 81 79 77 75 73 70 70 70 69 67 65 62 61 62 63 64 64 64 65 69 71 70 68 66 64 63 61 60 60 60 59 59 59 58
81 83 84 84 84 83 82 80 79 77 75 73 71 69 69 68 66 64 62 60 60 62 65 67 67 68 70 72 74 73 69 66 64 62 61 60 59 59 58 58 58 58
81 82 83 83 82 81 80 79 77 75 73 71 70 69 67 65 63 62 61 60 61 63 67 69 69 69 69 70 72 72 69 65 62 60 59 58 58 58 58 58 58 58
81 82 82 82 81 80 78 77 75 73 71 69 68 67 66 64 63 62 62 63 64 66 69 71 71 70 68 66 66 66 64 62 59 57 56 56 56 57 57 58 58 59
81 81 81 80 79 78 76 75 73 71 69 68 67 66 65 64 63 63 63 64 66 67 69 71 72 72 70 66 63 62 61 59 58 56 54 55 56 56 57 58 59 59
81 80 80 79 77 76 74 73 71 69 67 66 65 65 64 63 63 63 64 66 68 69 70 71 71 70 68 65 62 61 60 60 60 59 57 56 57 58 59 59 59 59
80 79 78 77 76 74 73 71 69 67 65 65 64 64 63 63 63 63 64 66 68 69 69 69 68 66 64 62 60 59 59 60 61 60 59 58 58 59 60 61 60 60
79 78 77 76 75 73 71 69 67 65 64 63 63 63 63 63 63 63 63 64 65 65 65 64 62 61 59 58 58 58 58 59 59 59 59 59 59 59 60 61 61 60
78 77 76 75 73 71 70 68 66 65 64 63 62 62 62 62 61 61 62 62 63 63 63 62 60 59 57 56 56 57 57 58 58 58 59 60 61 62 62 63 63 64
77 76 75 74 72 70 69 67 66 65 63 62 61 60 60 60 60 60 60 61 62 62 62 62 61 60 58 57 57 57 57 57 56 57 58 60 62 63 63 64 65 66
77 75 74 73 71 70 68 67 65 64 63 61 60 59 59 59 59 59 58 59 60 60 61 62 62 61 61 61 60 59 59 57 56 56 57 58 59 61 63 64 65 66
75 74 72 71 70 68 67 66 64 63 62 60 59 59 58 58 58 58 58 58 59 59 60 61 61 62 63 63 63 62 61 60 59 58 59 59 59 60 62 63 65 65
74 72 71 69 68 67 66 64 63 62 61 60 60 59 59 59 59 59 59 59 59 59 60 60 61 62 63 64 65 65 65 64 63 62 62 61 61 61 62 63 64 65
72 70 69 68 67 66 64 63 62 61 60 59 59 60 60 60 60 59 59 59 59 60 60 61 62 62 63 64 65 66 66 66 66 66 66 66 66 66 66 66 66 66
70 69 67 66 66 64 63 62 61 60 60 59 59 59 59 60 60 60 60 60 60 60 60 61 62 63 63 64 65 66 66 67 67 67 68 68 69 70 71 71 71 71
69 68 67 65 65 63 62 62 61 60 60 59 58 58 58 59 59 59 59 59 60 60 60 60 62 62 63 63 64 65 65 66 67 67 68 68 69 70 72 74 75 76
69 68 66 65 64 63 62 61 61 61 60 60 59 58 58 58 58 58 58 58 59 59 60 60 61 62 63 63 64 65 65 65 66 67 68 68 69 70 71 73 75 76
68 67 66 65 64 63 62 62 61 61 61 61 61 60 59 59 59 58 58 58 58 59 60 60 61 62 63 63 64 65 66 66 66 67 67 68 69 69 70 71 73 75
68 67 67 66 65 65 64 63 62 62 62 62 62 62 61 61 60 60 60 59 59 60 60 60 60 61 63 63 64 65 65 66 67 68 68 69 70 70 70 71 72 73
68 68 67 67 66 65 64 64 63 63 63 63 63 63 63 62 62 62 61 61 61 61 61 61 61 62 63 63 64 64 65 66 66 67 68 69 70 71 72 72 73 74
Wind_Direction
301 300 300 300 299 299 298 298 298 297 297 296 296 295 295 294 292 291 289 287 285 282 278 276 274 272 270 267 263 264 267 267 266 267 268 268 267 266 266 267 269 270
301 300 300 300 299 299 299 298 298 298 297 297 296 296 295 293 291 290 289 287 284 281 278 276 274 272 270 266 264 264 265 265 265 266 267 267 267 267 267 268 269 270
301 300 300 300 300 299 299 299 298 298 298 297 296 296 294 292 290 289 288 286 284 280 277 275 275 273 268 264 263 263 263 262 262 263 264 265 266 267 267 268 268 269
301 301 301 301 301 300 300 299 299 298 298 297 296 295 293 290 288 288 287 286 284 279 276 275 275 274 269 265 263 264 264 263 262 263 264 265 266 266 267 268 269 268
302 302 302 301 301 300 300 299 299 298 297 296 295 294 292 289 288 287 287 286 283 278 274 271 269 270 269 267 265 264 264 266 265 263 264 265 265 265 266 268 269 269
303 302 302 301 301 300 299 299 298 297 296 295 294 293 291 290 289 288 288 287 282 278 277 273 269 268 268 268 267 265 264 265 265 263 264 265 266 267 268 269 270 270
302 302 301 301 300 300 299 298 298 297 295 294 293 291 290 290 289 287 287 284 279 275 275 275 273 270 269 269 271 271 270 269 267 266 267 268 269 269 270 271 270 270
301 301 301 300 300 299 299 298 297 296 294 293 292 290 289 289 287 285 283 280 276 273 272 273 274 273 272 272 273 275 275 274 272 271 270 271 271 270 270 270 270 270
301 301 301 300 300 300 299 298 297 295 294 292 291 290 289 288 286 283 280 277 274 272 271 272 273 273 273 273 272 273 275 275 274 273 272 271 270 270 269 268 267 267
302 302 302 301 301 300 299 298 297 295 293 292 290 289 289 287 285 282 279 275 273 271 270 270 272 273 275 275 274 273 274 274 274 272 270 268 267 266 266 265 265 264
303 302 302 301 301 300 299 298 296 295 293 292 290 289 288 286 284 281 278 276 274 273 272 272 273 275 276 277 275 274 273 273 273 271 269 267 264 263 264 264 263 262
303 303 302 302 301 300 299 298 296 295 293 291 289 288 287 285 283 280 278 276 275 275 275 275 276 276 277 277 276 274 272 271 271 271 270 268 265 263 262 262 262 261
303 303 303 302 301 300 299 298 296 294 292 290 289 288 286 284 283 281 278 276 276 276 276 277 278 278 278 276 275 272 270 268 268 269 269 268 267 264 262 261 261 260
304 303 303 302 301 301 299 298 296 294 292 290 289 287 286 285 283 281 279 278 277 277 277 277 278 278 277 275 273 270 269 268 268 268 268 268 267 265 264 262 262 261
304 304 303 302 301 300 299 298 296 294 292 290 289 287 286 285 283 282 280 279 278 277 278 278 278 279 278 277 274 271 271 271 270 269 268 268 267 266 265 264 263 263
304 303 302 302 301 300 299 297 296 294 293 291 289 288 286 285 284 282 281 279 278 277 277 277 278 278 277 277 275 274 274 273 273 272 270 269 268 266 264 262 261 260
304 303 302 301 300 299 298 297 296 295 294 293 291 290 288 287 286 284 283 281 279 278 276 276 275 275 275 275 274 275 275 274 274 274 273 273 271 267 264 261 259 258
303 302 301 300 299 298 298 297 296 295 295 294 293 292 290 289 287 286 285 283 281 279 278 276 275 274 273 273 273 273 273 272 272 272 272 272 271 270 267 264 261 259
302 301 300 299 298 297 297 296 296 296 295 294 293 292 291 290 289 287 286 284 283 281 279 278 276 275 273 272 272 271 271 270 270 269 269 269 269 269 268 266 265 263
301 300 298 298 297 297 296 296 295 295 294 293 292 291 291 290 289 288 287 285 283 282 280 279 277 276 275 273 272 271 271 270 269 269 268 268 268 268 268 268 267 266
299 298 297 296 296 296 296 295 295 294 294 293 292 291 291 290 289 288 287 286 285 283 281 280 278 277 276 275 274 273 272 272 271 270 269 268 267 267 267 268 268 267
297 297 296 295 295 295 295 294 294 294 293 293 292 292 291 291 290 289 288 287 286 284 282 281 280 279 278 277 276 275 274 274 273 272 271 270 268 267 267 267 267 267
297 296 295 295 294 294 294 294 293 293 292 292 292 291 291 290 290 289 288 287 286 285 284 282 281 280 278 278 277 276 276 275 274 274 273 272 271 270 269 268 268 267
296 296 295 294 294 294 294 293 293 292 292 291 291 290 289 289 288 288 287 287 286 285 284 283 282 281 279 278 277 277 276 275 275 274 274 273 272 272 271 270 270 269
297 296 295 295 295 294 294 294 293 292 292 291 290 290 289 288 288 287 286 286 285 284 284 283 282 281 280 280 278 277 277 276 275 274 274 273 273 272 271 271 271 270
297 296 296 295 295 294 294 294 293 292 291 291 290 290 289 289 288 287 287 286 285 284 283 283 282 281 281 280 280 279 278 277 276 275 274 273 273 272 272 271 271 270
Height
5581 5578 5574 5571 5567 5564 5560 5557 5553 5550 5546 5543 5540 5538 5536 5533 5531 5528 5525 5523 5521 5519 5518 5517 5515 5514 5513 5513 5513 5513 5513 5512 5510 5509 5509 5510 5510 5510 5510 5510 5510 5511
5571 5567 5564 5560 5556 5553 5549 5545 5542 5538 5534 5531 5528 5526 5524 5522 5520 5518 5516 5514 5511 5510 5508 5507 5505 5504 5504 5504 5504 5504 5503 5502 5501 5501 5500 5501 5500 5501 5501 5501 5501 5501
5561 5557 5553 5549 5545 5541 5537 5534 5530 5527 5523 5520 5517 5515 5513 5511 5509 5507 5506 5504 5502 5500 5499 5497 5496 5495 5495 5495 5495 5495 5494 5493 5493 5492 5492 5492 5492 5492 5492 5492 5492 5492
5550 5546 5542 5538 5534 5530 5526 5522 5519 5516 5512 5509 5506 5504 5502 5500 5498 5497 5495 5494 5492 5491 5490 5489 5488 5487 5487 5487 5487 5487 5486 5485 5485 5484 5484 5484 5483 5483 5483 5483 5483 5483
5539 5535 5531 5527 5523 5519 5515 5511 5508 5504 5501 5498 5495 5493 5491 5489 5487 5486 5485 5484 5483 5482 5481 5481 5480 5480 5479 5479 5478 5478 5477 5477 5477 5476 5476 5475 5475 5475 5475 5475 5475 5475
5528 5524 5520 5516 5512 5508 5504 5501 5497 5494 5490 5487 5485 5482 5480 5478 5476 5475 5474 5474 5473 5472 5472 5472 5471 5471 5470 5470 5469 5469 5469 5469 5468 5468 5467 5467 5467 5467 5467 5467 5467 5467
5518 5514 5509 5505 5501 5497 5494 5490 5486 5483 5480 5477 5475 5472 5470 5468 5466 5465 5464 5464 5464 5463 5463 5463 5462 5462 5462 5461 5460 5459 5459 5459 5459 5459 5458 5458 5458 5458 5458 5458 5458 5458
5509 5504 5500 5496 5491 5487 5483 5479 5476 5473 5470 5467 5464 5462 5460 5458 5457 5456 5455 5455 5454 5454 5454 5453 5453 5452 5452 5451 5450 5449 5449 5449 5449 5449 5449 5449 5449 5449 5449 5449 5449 5449
5499 5495 5490 5486 5481 5477 5473 5469 5466 5463 5460 5457 5454 5452 5450 5449 5447 5446 5445 5445 5444 5444 5444 5443 5443 5442 5442 5441 5441 5440 5440 5439 5439 5439 5440 5440 5439 5440 5440 5440 5440 5440
5489 5484 5480 5475 5471 5467 5463 5459 5456 5453 5450 5447 5445 5442 5441 5439 5438 5437 5436 5435 5434 5434 5433 5433 5432 5432 5432 5432 5431 5431 5430 5430 5430 5430 5430 5430 5430 5430 5430 5430 5431 5431
5479 5475 5470 5466 5461 5457 5453 5449 5446 5443 5440 5438 5435 5433 5432 5430 5429 5428 5427 5426 5425 5424 5423 5423 5422 5422 5422 5422 5422 5422 5421 5421 5421 5420 5420 5421 5421 5421 5421 5421 5422 5422
5469 5465 5460 5456 5452 5447 5444 5440 5437 5434 5431 5429 5427 5425 5423 5421 5420 5419 5418 5417 5415 5414 5413 5413 5412 5412 5412 5412 5412 5412 5412 5412 5411 5411 5411 5411 5412 5412 5412 5412 5412 5412
5459 5455 5450 5446 5442 5438 5434 5431 5428 5425 5422 5419 5417 5415 5414 5412 5411 5410 5409 5407 5406 5405 5404 5403 5402 5402 5402 5402 5402 5402 5402 5402 5402 5401 5401 5401 5402 5402 5402 5402 5403 5403
5449 5444 5440 5436 5432 5429 5425 5422 5418 5415 5413 5410 5408 5406 5405 5403 5402 5400 5399 5398 5397 5396 5395 5394 5393 5393 5392 5392 5392 5392 5392 5392 5392 5392 5391 5391 5392 5392 5392 5393 5393 5393
5439 5435 5431 5427 5423 5420 5416 5413 5410 5407 5404 5402 5400 5398 5396 5394 5393 5391 5390 5389 5388 5387 5386 5385 5384 5384 5383 5383 5383 5383 5383 5383 5382 5382 5382 5382 5382 5382 5382 5383 5383 5384
5429 5425 5421 5418 5414 5411 5407 5404 5401 5398 5395 5393 5391 5389 5388 5386 5384 5383 5381 5380 5379 5378 5377 5376 5375 5375 5374 5374 5374 5374 5374 5374 5373 5373 5373 5372 5372 5372 5372 5373 5373 5374
5420 5416 5412 5409 5405 5402 5399 5396 5392 5390 5387 5385 5383 5381 5379 5377 5375 5374 5373 5371 5370 5369 5368 5367 5366 5365 5365 5365 5365 5365 5365 5365 5365 5364 5364 5363 5363 5363 5363 5363 5364 5364
5411 5407 5403 5400 5397 5394 5390 5387 5384 5381 5379 5376 5374 5372 5370 5368 5366 5365 5364 5362 5361 5360 5358 5358 5357 5356 5355 5355 5354 5355 5355 5355 5356 5356 5355 5355 5354 5354 5354 5353 5354 5354
5402 5399 5395 5392 5389 5386 5382 5379 5376 5374 5371 5368 5366 5364 5361 5359 5358 5356 5355 5353 5352 5351 5349 5348 5347 5346 5345 5345 5344 5344 5344 5345 5346 5346 5345 5345 5345 5345 5344 5344 5344 5344
5394 5390 5387 5383 5380 5377 5374 5371 5369 5366 5364 5361 5358 5356 5353 5351 5349 5348 5346 5345 5343 5342 5341 5339 5337 5336 5335 5335 5334 5334 5333 5334 5335 5335 5335 5335 5335 5334 5334 5333 5333 5334
5386 5383 5379 5375 5372 5369 5366 5363 5360 5358 5356 5353 5351 5348 5345 5343 5341 5339 5337 5336 5334 5333 5331 5330 5328 5326 5325 5324 5324 5323 5323 5323 5323 5323 5324 5324 5324 5323 5323 5322 5322 5323
5378 5375 5371 5368 5364 5361 5358 5355 5352 5350 5347 5345 5343 5340 5337 5335 5333 5331 5329 5327 5325 5323 5322 5320 5318 5316 5316 5315 5313 5313 5312 5312 5312 5312 5312 5313 5313 5313 5312 5311 5311 5311
5369 5366 5363 5359 5356 5353 5350 5347 5344 5341 5338 5336 5334 5332 5330 5327 5324 5322 5320 5318 5316 5314 5312 5311 5309 5307 5306 5305 5304 5303 5302 5302 5302 5301 5301 5301 5301 5301 5301 5300 5300 5299
5360 5356 5353 5350 5347 5344 5342 5339 5336 5333 5330 5327 5325 5323 5321 5319 5316 5314 5312 5310 5308 5305 5303 5302 5300 5297 5295 5295 5294 5293 5292 5292 5292 5291 5291 5290 5290 5290 5290 5289 5288 5287
5350 5347 5344 5341 5338 5335 5332 5330 5327 5324 5321 5318 5316 5314 5312 5310 5308 5305 5303 5301 5299 5296 5294 5293 5291 5289 5286 5284 5284 5283 5282 5282 5281 5280 5280 5279 5278 5278 5278 5278 5277 5275
5340 5337 5334 5331 5328 5325 5323 5320 5317 5315 5312 5309 5306 5304 5302 5301 5298 5296 5294 5292 5289 5287 5285 5283 5281 5280 5277 5275 5273 5272 5271 5271 5270 5270 5269 5268 5267 5267 5267 5266 5265 5264